{"data":{"norad_id":82820,"epoch":"2026-05-23T18:55:41.262528Z","epoch_age_seconds":175839,"freshness":"STALE","line1":"1 82820U          26143.78867202  .00001727  00000+0  60427-3 0  9994","line2":"2 82820  99.7969 331.2991 0046528 272.7420  86.8436 14.36117229648883","mean_motion":14.36117229,"eccentricity":0.0046528,"inclination_deg":99.7969,"raan_deg":331.2991,"arg_perigee_deg":272.742,"mean_anomaly_deg":86.8436,"bstar":0.00060427,"rev_number":64888,"period_min":100.27036588111,"perigee_km":738.09085674204,"apogee_km":804.621178969,"semimajor_km":7149.4930178555,"source":"CELESTRAK","updated_at":"2026-05-25T13:38:11.195954Z"}}